Location: アルンシュタイン
(50.0000°N, 10.0000°E)
Time: 05:57:30
(UTC+01:00)

Envisat - Pass Details

Date: 23 October 2021
Orbit: 764 x 766 km, 98.2° (Epoch: 04 December)

Event Time Altitude Azimuth Distance (km) Brightness Sun altitude
Rises 06:53:03 0° 12° (NNE) 3,246 6.3 -10.6°
Reaches altitude 10° 06:55:22 10° 10° (N) 2,315 5.6 -10.2°
Maximum altitude 07:00:27 71° 288° (WNW) 812 3.0 -9.4°
Drops below altitude 10° 07:05:29 10° 205° (SSW) 2,297 5.3 -8.6°
Sets 07:07:47 0° 203° (SSW) 3,219 6.1 -8.2°
